星链-3965 (STARLINK-3965 )

导读 | 星芒AI

STARLINK-3965 是 SpaceX Starlink 卫星互联网项目中的第 3965 颗卫星。该卫星属于低轨卫星群,旨在为全球用户提供高速互联网服务。它通过与其他 Starlink 卫星协同工作,实现低延迟、高带宽的通信连接。该卫星于 2023 年发射,采用先进推进系统和激光通信技术,提高网络效率与稳定性。Starlink 项目致力于覆盖偏远地区,促进全球数字包容。

基本信息
目录编号:
52550
目录名称:
STARLINK-3965
国际标识:
2022-051T
轨道中心:
EARTH
卫星名称:
星链-3965
卫星全名:
星链-3965 (STARLINK-3965 )
卫星状态:
在轨 (已飞行1318 天)
发射日期:
2022-05-13 UTC
国别 :
美国 (US)
星等 :
--
轨道信息
数据来源 国际轨道数据
星历时间: 2025-12-21T02:34:34+0800
9小时前
查看轨道信息
半长轴: 6917.854km
偏心率: 0.0001382
轨道倾角: 53.219°
近地点辐角 93.594°
升交点赤经 123.384°
平近点角 266.521°
近地点: 538.76km
远地点: 540.674km
周期: 95.437分钟
每日圈数: 15.088489
详细信息
固有亮度:
5
最大亮度:
2.5
卫星平台:
Starlink v1.5
覆盖范围:
全球
运营商:
太空探索技术公司
运营商所在国:
美国
制造商(研发单位):
太空探索技术公司
制造商所在国:
美国
使用方式:
暂无
卫星简介
星链(Starlink)计划是由太空探索技术公司(SpaceX)提出的一个巨型低轨卫星互联网星座项目,计划在2019年至2024年间在太空搭建由约1.2万颗卫星组成的“星链”网络,其中1584颗将部署在地球上空550千米处的近地轨道,并从2020年开始工作。该卫星仍在工作。
2D轨道图
3D轨道图
轨道高度分析图
轨道倾角分析图
轨道综合分析图
查看轨道综合分析图